Regional Weather Roundup
Issued by NWS

Home | Current Version | Previous Version | Graphics & Text | Print | Product List | Glossary On
Versions: 1 2 3 4 5 6 7 8 9 10 11 12 13 14 15 16 17 18 19 20 21 22 23 24 25 26 27 28 29 30 31 32 33 34 35 36 37 38 39 40 41 42 43 44 45 46 47 48 49 50
000
ASUS45 KCYS 212210
RWRWY

WYOMING REGIONAL WEATHER ROUNDUP
NATIONAL WEATHER SERVICE CHEYENNE WY
400 PM MDT FRI JUL 21 2017

NOTE:  "FAIR" INDICATES FEW OR NO CLOUDS BELOW 12,000 FEET
WITH NO SIGNIFICANT WEATHER AND/OR OBSTRUCTIONS TO VISIBILITY.

WYZ001-212300-
YELLOWSTONE NATIONAL PARK

CITY           SKY/WX    TMP DP  RH WIND       PRES   REMARKS
LK YELLOWSTONE   N/A     73  24  16 VRB6      30.32F
W YELLOWSTONE  NOT AVBL

$$
WYZ002>013-054>058-071-098>099-212300-
NORTHERN WYOMING

CITY           SKY/WX    TMP DP  RH WIND       PRES   REMARKS
JACKSON        SUNNY     81  27  13 SW14      30.22F
CODY           FAIR      84  42  22 NE8       30.06F
GREYBULL       FAIR      92  30  11 SE7       29.97F
WORLAND        FAIR      90  41  18 VRB5      29.98F
SHERIDAN       FAIR      88  34  14 VRB3      30.01F
BUFFALO        FAIR      86  35  16 VRB6      30.09F
GILLETTE       FAIR      90  34  13 VRB3      30.03S
HULETT         FAIR      88  32  13 N14       30.03S
NEWCASTLE      FAIR      90  34  13 NW14G21   30.02S

$$
WYZ014>020-022>026-101>103-212300-
CENTRAL WYOMING

CITY           SKY/WX    TMP DP  RH WIND       PRES   REMARKS
BIG PINEY      FAIR      81  40  23 VRB6      30.24F
PINEDALE       FAIR      81  34  18 N10G17    30.26F
DUBOIS         FAIR      79  23  12 NW23G33   30.23S
LANDER         FAIR      89  44  20 S3        30.09S
RIVERTON       FAIR      89  40  17 SW9       30.08F
CASPER         FAIR      87  47  24 SE7       30.08S
DOUGLAS        FAIR      87  45  23 NW12      30.06F

$$
WYZ021-027>030-104>119-212300-
SOUTHERN WYOMING

CITY           SKY/WX    TMP DP  RH WIND       PRES   REMARKS
EVANSTON       PTSUNNY   84  45  25 NE9       30.24F
KEMMERER         N/A     82  30  15 NW9G18    30.28S
FORT BRIDGER   FAIR      84  50  31 S16       30.27F
ROCK SPRINGS   FAIR      80  49  33 W8        30.23F
RAWLINS        FAIR      84  46  26 NW15      30.21S
SARATOGA       FAIR      81  45  28 N5        30.22F
LARAMIE        FAIR      75  48  38 N8        30.25S
CHEYENNE       FAIR      85  38  18 CALM      30.16S
TORRINGTON     FAIR      93  41  16 NE8       29.98F
PINE BLUFFS    FAIR      91  36  14 N5G12     30.08S

$$



USA.gov is the U.S. government's official web portal to all federal, state and local government web resources and services.